DW7371 Weather Reports


Display with metric or nautical units.
time (UTC)temp
F
wind
direction
speed
MPH
gust
MPH
rain 1hr
in
rain 24hr
in
rain mn
in
humidity
%
barometer
mb
20260905023731 60 94 0.0 2.0 0.00 0.00 0.00 78 1013.0
20260905022754 60 56 0.0 1.0 0.00 0.00 0.00 78 1012.9
20260905020651 62 82 0.0 3.0 0.00 0.00 0.00 75 1012.8
20260905014600 64 57 1.0 3.0 0.00 0.00 0.00 70 1012.6
20260905013534 64 51 1.0 3.0 0.00 0.00 0.00 70 1012.6
20260905012529 64 9 1.0 4.0 0.00 0.00 0.00 70 1012.5
20260905011523 64 29 2.0 4.0 0.00 0.00 0.00 71 1012.4
20260905010517 64 14 1.0 4.0 0.00 0.00 0.00 72 1012.5
20260905005542 64 29 1.0 3.0 0.00 0.00 0.00 71 1012.4
20260905004551 64 48 1.0 4.0 0.00 0.00 0.00 71 1012.3
20260905003557 64 38 2.0 7.0 0.00 0.00 0.00 71 1012.2
20260905002552 64 34 2.0 7.0 0.00 0.00 0.00 71 1012.1
20260905001608 65 331 2.0 4.0 0.00 0.00 0.00 70 1012.1
20260904235513 64 42 3.0 5.0 0.00 0.00 0.00 73 1012.0
20260904234510 64 21 2.0 4.0 0.00 0.00 0.00 73 1011.9
20260904232404 64 75 2.0 5.0 0.00 0.00 0.00 73 1011.8
20260904231357 64 33 2.0 5.0 0.00 0.00 0.00 73 1011.8
20260904225259 65 278 2.0 7.0 0.00 0.00 0.00 72 1011.8
20260904221908 67 329 3.0 8.0 0.00 0.00 0.00 68 1011.8
20260904220922 66 22 4.0 10.0 0.00 0.00 0.00 69 1011.8
20260904215919 65 11 5.0 10.0 0.00 0.00 0.00 71 1011.8
20260904214920 66 24 5.0 10.0 0.00 0.00 0.00 70 1011.8
20260904212756 66 29 4.0 10.0 0.00 0.00 0.00 70 1011.7
20260904211732 65 80 4.0 9.0 0.00 0.00 0.00 70 1011.9
20260904210729 67 24 3.0 8.0 0.00 0.00 0.00 67 1011.9
20260904204618 65 67 4.0 8.0 0.00 0.00 0.00 70 1011.7
20260904203553 65 40 4.0 8.0 0.00 0.00 0.00 72 1011.7
20260904202518 64 0 2.0 6.0 0.00 0.00 0.00 73 1011.6
20260904201520 64 64 3.0 7.0 0.00 0.00 0.00 72 1011.7
20260904200506 66 348 2.0 7.0 0.00 0.00 0.00 63 1011.6
20260904195529 64 28 2.0 4.0 0.00 0.00 0.00 71 1011.6
20260904194501 63 355 2.0 5.0 0.00 0.00 0.00 73 1011.6
20260904193511 63 51 3.0 8.0 0.00 0.00 0.00 73 1011.6
20260904192531 65 304 2.0 8.0 0.00 0.00 0.00 72 1011.7
20260904191501 63 50 2.0 7.0 0.00 0.00 0.00 73 1011.7
20260904190445 64 5 2.0 8.0 0.00 0.00 0.00 73 1011.7
20260904185456 63 115 2.0 8.0 0.00 0.00 0.00 74 1011.7
20260904184517 62 42 2.0 5.0 0.00 0.00 0.00 77 1011.7
20260904183449 61 309 2.0 5.0 0.00 0.00 0.00 78 1011.8
20260904182449 62 0 2.0 4.0 0.00 0.00 0.00 78 1011.6
20260904181422 61 351 2.0 5.0 0.00 0.00 0.00 82 1011.6
20260904180405 60 44 3.0 4.0 0.00 0.00 0.00 81 1011.5
20260904175427 59 17 2.0 4.0 0.00 0.00 0.00 82 1011.5
20260904174405 60 299 0.0 3.0 0.00 0.00 0.00 82 1011.6
20260904173402 59 273 0.0 1.0 0.00 0.00 0.00 83 1011.6
20260904172357 58 240 1.0 4.0 0.00 0.00 0.00 88 1011.5
20260904171338 57 192 2.0 3.0 0.00 0.00 0.00 90 1011.4
20260904170324 56 202 2.0 3.0 0.00 0.00 0.00 91 1011.5
20260904164109 56 176 2.0 6.0 0.00 0.00 0.00 91 1011.4
20260904163039 55 167 3.0 6.0 0.00 0.00 0.00 92 1011.4
20260904162018 55 155 2.0 6.0 0.00 0.00 0.00 92 1011.4
20260904161038 55 202 0.0 3.0 0.00 0.00 0.00 90 1011.5
20260904160043 55 193 1.0 3.0 0.00 0.00 0.00 91 1011.4
20260904155051 54 198 2.0 3.0 0.00 0.00 0.00 92 1011.3
20260904153042 54 261 0.0 0.0 0.00 0.00 0.00 92 1011.1
20260904152012 54 247 0.0 0.0 0.00 0.00 0.00 93 1011.0
20260904151022 53 247 0.0 0.0 0.00 0.00 0.00 94 1010.8
20260904150003 52 247 0.0 0.0 0.00 0.00 0.00 94 1010.6
20260904145013 52 171 0.0 0.0 0.00 0.00 0.00 94 1010.7
20260904144001 52 171 0.0 0.0 0.00 0.00 0.00 94 1010.5
20260904142955 51 171 0.0 0.0 0.00 0.00 0.00 94 1010.4
20260904141957 51 171 0.0 2.0 0.00 0.00 0.00 95 1010.4
20260904140944 51 173 1.0 4.0 0.00 0.00 0.00 94 1010.2
20260904135937 51 178 0.0 4.0 0.00 0.00 0.00 93 1010.2
20260904134911 51 117 0.0 0.0 0.00 0.00 0.00 93 1010.1
20260904133931 52 117 0.0 1.0 0.00 0.00 0.00 93 1010.0
20260904132949 52 69 0.0 2.0 0.00 0.00 0.00 93 1009.9
20260904131957 52 53 0.0 2.0 0.00 0.00 0.00 93 1009.8
20260904125800 52 156 0.0 0.0 0.00 0.00 0.00 93 1009.6
20260904124727 52 156 0.0 0.0 0.00 0.01 0.00 94 1009.6
20260904123722 52 156 0.0 0.0 0.00 0.01 0.00 94 1009.5
20260904122723 51 156 0.0 0.0 0.00 0.01 0.00 94 1009.5
20260904121740 51 165 0.0 1.0 0.00 0.01 0.00 94 1009.2
20260904114417 52 35 0.0 1.0 0.00 0.01 0.00 94 1009.0
20260904113441 51 279 0.0 0.0 0.00 0.01 0.00 94 1009.0
20260904112424 51 279 0.0 0.0 0.00 0.01 0.00 94 1008.9
20260904111403 51 279 0.0 0.0 0.00 0.01 0.00 94 1008.8
20260904110423 51 279 0.0 0.0 0.00 0.01 0.00 93 1008.9
20260904105402 51 279 0.0 0.0 0.00 0.01 0.00 94 1008.7
20260904104403 51 279 0.0 0.0 0.00 0.01 0.00 94 1008.7
20260904103415 51 279 0.0 0.0 0.00 0.01 0.00 94 1008.7
20260904102422 50 281 0.0 0.0 0.00 0.01 0.00 93 1008.6
20260904100244 52 83 0.0 0.0 0.00 0.01 0.00 93 1008.6
20260904094150 51 131 0.0 0.0 0.00 0.01 0.00 93 1008.4
20260904093128 51 131 0.0 0.0 0.00 0.01 0.00 92 1008.6
20260904092132 51 131 0.0 0.0 0.00 0.01 0.00 93 1008.6
20260904085949 51 131 0.0 0.0 0.00 0.01 0.00 92 1008.6
20260904084941 51 131 0.0 0.0 0.00 0.01 0.00 93 1008.6
20260904084006 50 132 0.0 0.0 0.00 0.01 0.00 92 1008.6
20260904082943 50 132 0.0 0.0 0.00 0.01 0.00 92 1008.5
20260904081950 50 132 0.0 0.0 0.00 0.01 0.00 92 1008.6
20260904080945 51 132 0.0 0.0 0.00 0.01 0.00 90 1008.8
20260904080004 52 132 0.0 0.0 0.00 0.01 0.00 90 1008.7
20260904074934 52 136 0.0 0.0 0.00 0.01 0.00 89 1008.7
20260904073931 52 121 0.0 2.0 0.00 0.01 0.00 89 1008.7
20260904072941 52 121 0.0 2.0 0.00 0.01 0.00 88 1008.7
20260904071924 53 165 0.0 0.0 0.00 0.01 0.00 88 1008.6
20260904070855 53 166 0.0 0.0 0.00 0.01 0.00 88 1008.5
20260904065824 53 166 0.0 0.0 0.00 0.01 0.01 89 1008.4
20260904064845 52 205 0.0 0.0 0.00 0.01 0.01 89 1008.4
20260904063835 52 70 0.0 0.0 0.00 0.01 0.01 87 1008.4
20260904062807 54 70 0.0 0.0 0.00 0.01 0.01 86 1008.4
20260904061733 54 70 0.0 1.0 0.00 0.01 0.01 85 1008.3
20260904060746 54 70 0.0 1.0 0.00 0.01 0.01 85 1008.2
20260904055807 54 115 0.0 0.0 0.00 0.01 0.01 84 1008.3
20260904054819 54 115 0.0 0.0 0.00 0.01 0.01 84 1008.3
20260904053806 54 115 0.0 0.0 0.00 0.01 0.01 84 1008.3
20260904052758 54 115 0.0 2.0 0.00 0.01 0.01 85 1008.2
20260904051754 53 159 0.0 2.0 0.00 0.01 0.01 85 1008.2
20260904050815 55 47 0.0 0.0 0.00 0.01 0.01 83 1008.1
20260904044606 54 47 0.0 0.0 0.00 0.01 0.01 86 1008.0
20260904043613 54 47 0.0 0.0 0.00 0.01 0.01 84 1007.9
20260904042606 56 47 0.0 0.0 0.00 0.01 0.01 82 1008.0
20260904041612 56 47 0.0 0.0 0.00 0.01 0.01 82 1008.1
20260904040551 56 47 0.0 0.0 0.00 0.01 0.01 83 1008.1
20260904034437 57 47 0.0 0.0 0.00 0.01 0.01 79 1008.1
20260904033459 57 47 0.0 0.0 0.00 0.01 0.01 80 1008.0
20260904031342 59 47 0.0 0.0 0.00 0.01 0.01 75 1007.8
20260904030337 60 28 0.0 0.0 0.00 0.01 0.01 75 1007.7